Location: *
(51.1248°S, 108.4023°W)
Time: 05:44:43
(UTC+00:00)

Envisat - Pass Details

Date: 26 September 2021
Orbit: 764 x 766 km, 98.2° (Epoch: 17 October)

Event Time Altitude Azimuth Distance (km) Brightness Sun altitude
Rises 10:27:55 0° 41° (NE) 3,238 6.3 -22.2°
Reaches altitude 10° 10:30:20 10° 49° (NE) 2,319 5.7 -21.9°
Maximum altitude 10:35:02 38° 115° (ESE) 1,174 4.5 -21.2°
Drops below altitude 10° 10:39:47 10° 182° (S) 2,345 5.9 -20.6°
Sets 10:42:14 0° 189° (S) 3,279 6.5 -20.3°
